Vertical_Velocity
-3 -2 -4 -2 -0 -2 -2 -2 -4 0 -2 -1 2 -0 -3 2 -3 -3 -2 2 -2 -0 15 1 5 -3 -1 -4 -2 1 2 10 4 -6 -4 8 2 1 5 4 2 -7 3
-3 -5 -7 -1 -0 -3 0 0 2 16 4 -3 1 0 -0 -2 0 1 -1 -1 2 0 3 2 0 4 2 -2 -6 -4 2 1 13 0 -3 2 5 2 6 2 2 4 4
-3 -3 -5 -6 -6 -2 -4 -1 2 3 2 38 -2 -1 -1 -2 -2 -4 1 -3 1 3 1 2 4 5 8 -1 -2 -2 -1 -3 -0 7 3 -2 4 4 -0 1 1 -1 -1
-2 -4 -3 -2 -1 -2 -4 -3 -3 -1 1 1 0 5 1 1 0 -2 -3 -2 -1 -2 -2 1 1 1 0 -1 4 -0 1 2 4 6 7 4 0 -5 1 -1 -2 -2 -2
-2 -1 -4 -3 -1 -1 0 -5 -2 -0 -2 0 -1 -1 -1 0 -2 -0 -2 -4 -2 0 -1 -1 -0 -1 -2 0 2 1 -0 -4 2 2 3 -0 -1 -1 2 4 -6 -5 2
-0 -1 2 -1 -5 -4 -4 -1 -1 -3 -2 -1 -1 -2 -1 2 -0 -2 -2 1 -2 -2 -1 -2 1 1 -0 -0 1 0 1 -1 -4 -3 2 0 -2 5 6 2 -1 -0 6
-2 2 1 1 -1 -2 -2 -0 -0 -2 -1 -2 -2 -0 0 0 -1 -1 -3 -0 1 -2 0 -0 -1 -2 19 1 -2 2 1 -2 -0 -3 -3 -4 3 -2 -1 2 5 4 -1
-2 -1 -1 -1 -1 1 0 -1 -0 1 -0 -0 -0 -1 -1 -0 0 -1 -3 -1 1 1 -1 -1 -1 1 -1 -1 -3 3 1 2 -1 -2 0 -5 1 0 -3 1 3 -3 -1
-2 -3 -0 -1 -0 -1 -1 0 -2 -0 0 1 -0 2 2 3 -1 -3 -4 2 1 1 2 -1 -2 3 -0 -6 -0 0 -1 4 -3 -0 -2 -3 0 -1 3 2 1 -1 -0
-1 -1 -4 -2 -3 -0 -2 -2 -0 -1 2 -1 2 1 -0 3 -4 -3 -4 1 4 -0 -2 -1 -1 2 1 -3 -1 -2 -1 -1 0 -3 -1 -0 -2 5 3 1 -1 3 1
0 -0 1 0 3 -1 0 -1 -0 -3 -1 2 2 -1 -1 -4 2 -3 -5 -0 -0 3 2 -0 3 -3 -3 -0 -3 -3 4 9 0 -1 -3 0 -1 -0 2 3 1 4 -1
-1 -0 -1 -1 -3 -2 -2 -3 -2 0 -1 1 2 2 -4 -5 5 -2 -1 1 -1 1 -1 -1 0 0 -0 -0 0 3 0 -1 -2 -2 0 1 0 1 -2 -2 -3 2 2
-1 -3 1 -4 -4 -3 -3 -1 1 -0 2 -1 -0 2 2 -1 -2 0 2 -0 -3 -4 -1 -1 -2 -3 0 0 0 -1 1 -1 -3 0 3 3 3 -3 -4 4 2 0 2
-2 1 1 -2 -6 -3 -2 1 1 -2 -1 2 0 -0 1 -1 -3 -3 -0 -4 -3 5 1 0 3 1 -2 -2 1 -2 -1 -5 1 -2 1 1 -2 -1 2 -2 -3 -1 2
-2 -0 -1 -3 -1 -4 -1 -3 0 2 -1 -0 -1 2 -0 0 -3 2 2 3 3 7 6 1 -1 -3 1 0 -1 -3 -2 -6 -2 -1 3 6 1 1 2 0 1 1 3
0 0 -1 -0 -3 -0 -3 -7 3 2 -2 -3 1 3 -4 -1 -2 -5 -3 1 -4 -0 -1 -5 -2 -2 -2 -1 -1 1 -1 -1 -4 -2 4 9 6 6 1 -6 2 4 -2
-0 -3 -2 1 -1 -4 -0 4 -6 -4 3 1 -0 -0 -0 -6 -2 -2 -1 1 -2 -5 1 -3 0 2 -0 -3 -2 -3 0 1 1 -3 3 5 1 17 4 8 1 -4 14
-1 -1 -1 1 0 -5 0 0 2 1 -4 -0 1 -3 -2 -1 -2 -0 -0 -0 -2 -0 -2 -3 -3 -6 -4 -2 -5 -2 2 0 -1 -0 -2 2 -7 62 -11 -0 5 16 28
-1 -1 1 -0 -3 -2 -1 0 -1 -1 0 0 -4 -1 1 -1 -4 -0 -0 3 2 2 1 -4 2 2 -0 -5 -6 -2 -3 -4 -1 1 -2 -1 1 -14 -7 -5 -2 1 16
-2 -2 1 0 -3 -2 -4 -0 -1 -1 1 -0 0 -2 -2 -1 -2 1 -1 -2 -3 -1 3 -7 -3 -1 -4 -1 -0 0 -3 -0 -1 1 -6 -5 2 -4 -7 -3 0 4 -4
-3 -1 1 0 -2 -2 -2 1 -3 -2 -0 -0 -0 1 -1 -1 -3 0 -1 -4 -4 -7 20 4 4 -4 0 9 23 8 1 3 2 4 0 -6 0 2 -11 -5 43 1 -3
-1 -1 1 0 -1 -2 1 1 -3 1 -0 -1 -2 -1 0 -1 -2 -0 1 -0 -4 -3 -5 -3 -5 1 1 4 15 4 16 26 26 13 1 1 -2 -4 1 -0 2 14 -1
-1 0 0 -1 2 -0 4 -4 -0 -1 1 1 0 -1 -1 -0 -1 -0 -0 -0 -1 -2 -0 -1 -1 -3 -4 -4 2 15 8 15 18 18 29 3 -2 -2 4 1 5 25 13
3 -0 -2 1 0 6 -1 -0 3 -2 -1 -0 1 1 0 -1 -2 -3 -1 0 -1 -5 -3 1 -1 -0 -7 1 -13 2 3 8 22 10 31 7 6 -5 -2 3 4 15 -5
-1 -1 3 -2 1 3 -0 2 -1 -2 -1 -3 -5 -5 -3 -2 1 1 -4 -6 -5 -1 -4 -3 0 -4 -2 -7 -5 -1 -4 -1 8 23 18 15 26 17 14 6 12 3 6
-0 -1 0 2 2 -0 0 -1 3 -1 -2 -3 -2 -1 -7 -8 -5 -4 -0 -1 -3 -3 -4 -2 -4 -1 -1 2 -2 1 -13 -7 -11 1 9 4 6 10 13 6 0 6 6
Height
5903 5903 5902 5903 5902 5902 5902 5901 5900 5900 5899 5900 5898 5897 5896 5896 5895 5897 5899 5897 5896 5895 5897 5898 5896 5895 5896 5896 5896 5896 5895 5898 5899 5896 5896 5898 5901 5901 5902 5903 5902 5898 5900
5895 5894 5892 5892 5892 5892 5891 5891 5890 5887 5889 5890 5890 5890 5890 5890 5889 5889 5889 5889 5891 5890 5889 5890 5891 5889 5890 5890 5889 5889 5889 5889 5891 5890 5890 5890 5890 5892 5894 5895 5895 5895 5897
5888 5887 5885 5883 5882 5881 5881 5880 5880 5879 5878 5875 5879 5882 5881 5881 5882 5882 5882 5881 5880 5881 5881 5882 5883 5883 5883 5882 5883 5884 5882 5882 5883 5885 5884 5883 5885 5886 5885 5887 5890 5891 5893
5881 5878 5877 5875 5873 5871 5870 5870 5870 5869 5868 5868 5869 5870 5870 5871 5872 5872 5871 5872 5872 5872 5874 5874 5875 5875 5876 5875 5876 5877 5877 5876 5875 5876 5876 5875 5874 5877 5881 5882 5886 5888 5889
5874 5872 5869 5866 5864 5862 5861 5860 5859 5859 5858 5858 5858 5857 5858 5858 5859 5860 5860 5862 5863 5864 5865 5866 5866 5867 5868 5867 5868 5868 5870 5870 5869 5869 5867 5863 5863 5869 5874 5876 5878 5883 5882
5864 5862 5859 5856 5853 5851 5849 5849 5848 5848 5847 5848 5848 5848 5848 5848 5848 5847 5848 5850 5852 5854 5855 5856 5857 5858 5859 5858 5859 5860 5861 5863 5863 5862 5861 5857 5858 5862 5868 5871 5873 5874 5875
5856 5854 5850 5847 5844 5840 5838 5836 5835 5835 5836 5836 5837 5837 5838 5837 5836 5836 5836 5838 5840 5842 5844 5845 5846 5848 5853 5849 5850 5852 5853 5854 5855 5856 5856 5855 5858 5859 5862 5864 5866 5867 5867
5845 5842 5840 5837 5834 5832 5829 5826 5823 5822 5822 5823 5823 5823 5824 5823 5823 5823 5823 5824 5828 5830 5832 5834 5835 5837 5838 5839 5840 5843 5844 5846 5846 5848 5849 5850 5852 5856 5857 5857 5859 5860 5860
5834 5831 5829 5827 5824 5821 5818 5815 5812 5811 5810 5809 5809 5810 5810 5810 5809 5810 5810 5812 5814 5817 5820 5822 5823 5825 5827 5827 5830 5833 5835 5838 5838 5840 5842 5843 5845 5848 5850 5851 5851 5853 5852
5824 5821 5817 5815 5812 5810 5807 5804 5802 5800 5798 5797 5797 5796 5796 5797 5795 5796 5797 5799 5802 5803 5806 5809 5812 5814 5816 5816 5819 5822 5826 5828 5829 5832 5834 5835 5836 5839 5842 5844 5843 5845 5846
5813 5810 5806 5803 5801 5798 5795 5792 5790 5788 5787 5785 5784 5783 5782 5782 5782 5783 5784 5786 5788 5789 5792 5795 5797 5799 5804 5805 5807 5811 5818 5817 5819 5822 5825 5827 5827 5829 5832 5834 5836 5837 5839
5801 5799 5796 5792 5790 5787 5784 5780 5778 5777 5775 5773 5772 5770 5768 5768 5770 5771 5772 5773 5773 5775 5778 5782 5784 5785 5789 5792 5796 5800 5804 5804 5808 5811 5815 5818 5819 5820 5821 5822 5825 5828 5829
5792 5789 5785 5782 5779 5777 5773 5770 5767 5764 5763 5761 5759 5758 5757 5756 5757 5757 5757 5759 5760 5761 5766 5769 5770 5772 5775 5778 5781 5785 5787 5792 5795 5800 5804 5807 5808 5806 5807 5811 5814 5817 5818
5783 5779 5775 5772 5769 5765 5762 5758 5755 5752 5750 5748 5747 5746 5745 5744 5744 5743 5743 5746 5747 5749 5751 5755 5757 5759 5761 5763 5766 5770 5772 5776 5781 5784 5791 5794 5794 5795 5796 5797 5801 5804 5807
5774 5770 5766 5762 5759 5755 5752 5747 5744 5741 5739 5738 5736 5735 5734 5734 5734 5733 5733 5734 5734 5734 5736 5738 5740 5742 5746 5748 5750 5753 5758 5760 5763 5771 5775 5780 5781 5783 5785 5785 5788 5792 5795
5766 5761 5757 5753 5749 5747 5743 5738 5736 5733 5730 5728 5727 5726 5725 5725 5723 5720 5720 5719 5720 5721 5722 5724 5726 5727 5729 5731 5734 5739 5742 5746 5750 5754 5757 5762 5765 5770 5772 5772 5773 5778 5781
5758 5753 5749 5745 5741 5738 5735 5732 5726 5724 5723 5720 5719 5718 5717 5715 5712 5710 5709 5708 5707 5708 5708 5709 5711 5713 5713 5716 5718 5721 5726 5731 5736 5739 5742 5743 5747 5753 5758 5760 5761 5763 5768
5750 5746 5742 5737 5734 5731 5727 5724 5721 5719 5715 5713 5711 5709 5707 5706 5705 5702 5700 5698 5697 5696 5696 5696 5697 5697 5697 5698 5700 5703 5708 5714 5719 5723 5727 5732 5736 5733 5744 5748 5748 5749 5753
5744 5739 5734 5730 5728 5725 5721 5718 5715 5712 5709 5707 5703 5701 5700 5698 5696 5694 5692 5690 5688 5685 5684 5682 5682 5683 5682 5681 5682 5685 5689 5694 5701 5705 5712 5720 5726 5728 5732 5734 5734 5735 5738
5737 5733 5729 5725 5722 5718 5715 5712 5709 5706 5703 5700 5698 5695 5692 5691 5689 5686 5685 5683 5679 5675 5673 5672 5669 5670 5669 5669 5670 5672 5674 5678 5684 5689 5697 5706 5712 5716 5719 5723 5724 5723 5726
5731 5727 5723 5720 5716 5713 5709 5705 5703 5700 5696 5694 5691 5690 5687 5684 5681 5678 5676 5674 5672 5665 5662 5662 5660 5661 5661 5658 5659 5657 5661 5663 5669 5674 5681 5690 5698 5704 5707 5705 5700 5711 5714
5725 5721 5717 5714 5711 5708 5705 5701 5699 5696 5692 5689 5685 5682 5680 5678 5674 5672 5668 5665 5663 5659 5655 5657 5656 5653 5650 5649 5648 5648 5646 5651 5658 5659 5668 5676 5683 5689 5694 5698 5699 5700 5701
5718 5715 5711 5708 5706 5703 5701 5698 5696 5693 5689 5685 5681 5677 5673 5670 5666 5663 5660 5657 5655 5651 5648 5647 5647 5645 5642 5641 5640 5639 5640 5638 5644 5653 5656 5660 5668 5675 5680 5683 5685 5685 5689
5712 5709 5705 5702 5700 5698 5697 5694 5692 5689 5684 5680 5676 5672 5667 5663 5658 5654 5651 5647 5644 5642 5640 5637 5637 5636 5635 5633 5634 5632 5631 5629 5635 5637 5641 5649 5653 5660 5668 5672 5676 5675 5674
5705 5703 5700 5697 5695 5693 5691 5689 5687 5684 5681 5675 5670 5666 5660 5655 5651 5646 5640 5635 5632 5629 5627 5625 5625 5627 5626 5626 5626 5625 5623 5625 5626 5628 5630 5633 5638 5646 5653 5657 5660 5663 5668
5698 5696 5694 5692 5689 5687 5685 5683 5681 5678 5674 5669 5665 5658 5652 5645 5640 5634 5629 5623 5617 5614 5612 5611 5611 5611 5613 5613 5616 5618 5619 5619 5619 5620 5621 5624 5628 5634 5639 5644 5646 5651 5655